Location: G�ndlingen
(48.0142°N, 7.6396°E)
Time: 19:09:47
(UTC+00:00)

Terra - Pass Details

Date: 05 July 2020
Orbit: 701 x 703 km, 98.2° (Epoch: 12 August)

Event Time Altitude Azimuth Distance (km) Brightness Sun altitude
Exits shadow 22:10:32 16° 210° (SSW) 1,794 3.6 -16.9°
Maximum altitude 22:13:38 32° 264° (W) 1,213 3.1 -17.0°
Drops below altitude 10° 22:17:55 10° 328° (NNW) 2,182 5.6 -17.3°
Sets 22:20:24 0° 338° (NNW) 3,105 6.9 -17.4°
